[[{"header":{"parameterUnit":"m.s-1","parameterCategory":1,"la1":30.2991,"la2":30.254,"lo1":-89.0895,"lo2":-89.0444,"dy":0.0017,"dx":0.0017,"nx":28,"ny":28,"refTime":"2023-07-18T03:00:00:Z","depth":0,"parameterNumber":2,"parameterNumberName":"U-component_of_WINDS"},"data":[0,0,0,0,0,0,0,0,0,0,0,0,0,0,0,0,0,0,0,0,0,0,0,0,0,0,0,0,0,0,0,0,0,0,0,0,0,0,0,0,0,0,0,0,0,0,0,0,0,0,0,0,0,0,0,0,0,0,1.0505,1.0504,0,1.0487,1.0487,1.0487,1.0425,1.0424,1.0423,1.0421,1.0406,1.0407,1.0407,0,0,0,0,0,0,0,0,0,0,0,0,0,1.0486,1.0486,1.0505,1.0504,1.0504,1.0487,1.0487,1.0486,1.0426,1.0424,1.0422,1.0421,1.0405,1.0406,1.0407,0,0,0,0,0,0,0,0,0,0,0,0,0,1.0484,1.0487,1.0505,1.0472,1.0468,1.0487,1.0487,1.0486,1.0426,1.0424,1.0422,1.042,1.0405,1.0406,1.0408,1.0457,0,0,1.0412,1.0412,0,0,0,0,0,0,0,0,1.0484,1.0485,1.0477,1.0474,1.047,1.0456,1.0474,1.0477,1.0426,1.0442,1.0421,1.0419,1.0424,1.0424,1.0425,1.0457,1.0456,1.0412,1.0413,1.0413,1.0414,0,0,0,0,0,0,0,1.0484,1.0485,1.0498,1.0477,1.0473,1.0458,1.0455,1.0475,1.0445,1.0441,1.0436,1.0435,1.0422,1.0424,1.0424,1.0456,1.0412,1.0413,1.0414,1.0414,1.0525,1.0527,0,0,0,0,0,0,1.0489,1.0486,1.0498,1.0497,1.0472,1.046,1.0457,1.0463,1.0445,1.044,1.0437,1.0432,1.0423,1.0423,1.0424,1.0479,1.0413,1.0414,1.0415,1.0522,1.0525,1.0527,0,0,0,0,0,0,1.0489,1.0491,1.0499,1.049,1.049,1.0462,1.047,1.0464,1.0465,1.0442,1.0436,1.0444,1.0421,1.0422,1.0449,1.0478,1.0415,1.0416,1.052,1.0523,1.0526,1.0591,0,0,0,0,0,0,1.0488,1.0491,1.051,1.0491,1.0491,1.0524,1.0471,1.0465,1.0468,1.0461,1.0447,1.0443,1.042,1.0447,1.045,1.0478,1.0417,1.0517,1.0521,1.0525,1.0587,1.0596,1.0605,0,0,0,0,0,1.0488,1.053,1.0511,1.0513,1.0513,1.0526,1.0526,1.0498,1.047,1.0489,1.0473,1.0443,1.0474,1.045,1.0453,1.0482,1.0515,1.052,1.0525,1.0582,1.0595,1.0605,0,0,0,0,0,0,1.0554,1.0527,1.0506,1.0543,1.0537,1.0516,1.0538,1.0512,1.0515,1.0509,1.0475,1.0472,1.0504,1.0496,1.047,1.0528,1.049,1.0495,1.0532,1.0544,1.0553,1.0554,1.0418,0,0,0,0,0,1.0573,1.0585,1.0561,1.0596,1.0594,1.0567,1.0571,1.055,1.0543,1.0541,1.0527,1.0522,1.053,1.0537,1.0543,1.0585,1.058,1.0606,1.0615,1.0623,1.0628,1.0648,1.0659,1.0543,1.0543,1.0543,0,0,1.0612,1.0599,1.0609,1.0609,1.0602,1.0615,1.0565,1.0582,1.0591,1.0543,1.0567,1.0557,1.0549,1.0583,1.0598,1.0578,1.0659,1.0629,1.0636,1.0637,1.0654,1.0665,1.0675,1.0546,1.0546,1.0545,0,0,1.069,1.0682,1.0708,1.0702,1.0692,1.0673,1.0679,1.0662,1.0652,1.0676,1.0639,1.065,1.0666,1.0661,1.066,1.0733,1.0706,1.0737,1.0785,1.0804,1.0813,1.0821,1.0846,1.0856,1.0742,1.0742,1.0742,0,1.074,1.0758,1.0726,1.0744,1.0745,1.07,1.0727,1.0722,1.0715,1.0717,1.0694,1.0711,1.0702,1.0734,1.0751,1.0753,1.0759,1.0738,1.0815,1.0822,1.0829,1.0852,1.0862,1.0746,1.0745,1.0745,1.0745,0,1.082,1.0833,1.0856,1.0848,1.0851,1.0874,1.0845,1.0851,1.0829,1.0813,1.0836,1.0824,1.0826,1.0832,1.0812,1.086,1.0848,1.0821,1.0781,1.0844,1.0866,1.0874,1.0751,1.075,1.0749,1.0748,0,0,1.094,1.0912,1.0921,1.0916,1.09,1.091,1.093,1.093,1.0936,1.0933,1.0948,1.0961,1.0935,1.0934,1.0912,1.093,1.0986,1.09,1.0899,1.0915,1.1037,1.1058,1.1069,1.0968,1.0969,1.0971,1.1038,0,1.1013,1.1045,1.1015,1.1053,1.1063,1.102,1.1037,1.1029,1.1014,1.1021,1.1004,1.1013,1.0979,1.0978,1.0993,1.0976,1.101,1.0971,1.0981,1.0982,1.0984,1.108,1.1102,1.1166,1.1046,1.1047,1.1048,0,1.1103,1.11,1.1139,1.1118,1.1121,1.1137,1.1134,1.1142,1.1131,1.1119,1.1117,1.109,1.1107,1.1068,1.1092,1.1066,1.1068,1.106,1.1062,1.1062,1.1019,1.1081,1.1185,1.1195,1.1061,1.106,1.1059,0,1.1185,1.1192,1.1215,1.1212,1.1189,1.1201,1.1192,1.1179,1.1181,1.1179,1.1179,1.118,1.118,1.1181,1.1154,1.1128,1.118,1.114,1.117,1.1171,1.1183,1.1183,1.1288,1.1186,1.1186,1.1186,1.1185,0,1.1269,1.1294,1.1251,1.1265,1.1291,1.1257,1.1284,1.127,1.1259,1.127,1.1233,1.1244,1.1208,1.1215,1.1194,1.1216,1.1217,1.1207,1.1201,1.1209,1.1211,1.121,1.1205,1.1188,1.1188,1.1187,1.1187,0,1.1365,1.1338,1.136,1.1335,1.133,1.135,1.1329,1.1341,1.1322,1.1336,1.1337,1.1309,1.1315,1.1288,1.129,1.1276,1.1308,1.1295,1.1311,1.1307,1.1338,1.1335,1.1447,1.1459,1.135,1.1351,1.1352,0,1.142,1.1438,1.1414,1.1418,1.1411,1.1418,1.1418,1.1385,1.1387,1.1375,1.1389,1.1391,1.1392,1.1403,1.1383,1.1384,1.137,1.1409,1.137,1.1377,1.1369,1.1368,1.1369,1.1417,1.1418,1.142,1.142,0,1.152,1.1505,1.1507,1.1504,1.1506,1.1502,1.1496,1.1502,1.1465,1.147,1.1474,1.1475,1.1475,1.1478,1.1474,1.1465,1.1437,1.1433,1.144,1.1449,1.1457,1.1451,1.1332,1.143,1.1429,1.1429,1.1428,1.1428,1.1597,1.1609,1.1594,1.1597,1.1589,1.1583,1.1593,1.1574,1.1577,1.1574,1.1555,1.1563,1.155,1.1542,1.1535,1.1541,1.1523,1.1533,1.1536,1.1539,1.1544,1.1456,1.1541,1.154,1.154,1.154,1.154,0,1.1694,1.1681,1.1684,1.1676,1.1678,1.1649,1.1641,1.1645,1.1652,1.1642,1.1642,1.1647,1.1649,1.1628,1.1627,1.1636,1.1623,1.1637,1.1636,1.1634,1.1561,1.1554,1.1648,1.1647,1.1647,1.1647,1.1647,1.1647,1.1744,1.1764,1.1747,1.1761,1.1748,1.1755,1.1752,1.1747,1.1739,1.1745,1.1746,1.1732,1.1717,1.1715,1.1715,1.1709,1.171,1.1728,1.1718,1.165,1.1639,1.1629,1.1623,1.1729,1.1729,1.179,1.179,1.1791]},{"header":{"parameterUnit":"m.s-1","parameterCategory":1,"la1":30.2991,"la2":30.254,"lo1":-89.0895,"lo2":-89.0444,"dy":0.0017,"dx":0.0017,"nx":28,"ny":28,"refTime":"2023-07-18T03:00:00:Z","depth":0,"parameterNumber":3,"parameterNumberName":"V-component_of_WINDS"},"data":[0,0,0,0,0,0,0,0,0,0,0,0,0,0,0,0,0,0,0,0,0,0,0,0,0,0,0,0,0,0,0,0,0,0,0,0,0,0,0,0,0,0,0,0,0,0,0,0,0,0,0,0,0,0,0,0,0,0,5.3423,5.3423,0,5.3441,5.3442,5.3442,5.3352,5.335,5.3347,5.3345,5.336,5.3362,5.3365,0,0,0,0,0,0,0,0,0,0,0,0,0,5.3305,5.3307,5.3422,5.3423,5.3423,5.3441,5.3442,5.3442,5.3353,5.335,5.3346,5.3344,5.3359,5.3362,5.3365,0,0,0,0,0,0,0,0,0,0,0,0,0,5.3343,5.3308,5.3422,5.3381,5.3377,5.3441,5.3442,5.3442,5.3353,5.335,5.3346,5.3342,5.3358,5.3362,5.3366,5.3469,0,0,5.3379,5.338,0,0,0,0,0,0,0,0,5.3341,5.3347,5.3387,5.3384,5.338,5.3391,5.3406,5.3451,5.3354,5.3362,5.3345,5.334,5.3373,5.3375,5.3387,5.347,5.3471,5.3379,5.3382,5.3383,5.3385,0,0,0,0,0,0,0,5.3338,5.3346,5.343,5.3387,5.3383,5.336,5.3361,5.3414,5.3389,5.3361,5.3355,5.3359,5.337,5.3384,5.3387,5.3471,5.3379,5.3383,5.3385,5.3387,5.364,5.3644,0,0,0,0,0,0,5.3342,5.3344,5.3429,5.343,5.3351,5.3365,5.3366,5.3391,5.3388,5.3384,5.3362,5.3354,5.3378,5.3382,5.3387,5.3508,5.3383,5.3387,5.339,5.3635,5.364,5.3645,0,0,0,0,0,0,5.334,5.335,5.3428,5.3386,5.3394,5.3371,5.34,5.3393,5.3407,5.3389,5.3383,5.3381,5.3375,5.3381,5.345,5.3508,5.3389,5.3393,5.363,5.3637,5.3643,5.3752,0,0,0,0,0,0,5.3337,5.335,5.339,5.3387,5.3397,5.3492,5.3403,5.3397,5.3415,5.3405,5.3405,5.3401,5.3373,5.3444,5.3454,5.3511,5.3396,5.3625,5.3633,5.3641,5.3743,5.3761,5.3776,0,0,0,0,0,5.3333,5.3419,5.3393,5.3403,5.3446,5.3496,5.3501,5.3468,5.342,5.3459,5.3448,5.3401,5.35,5.3452,5.3462,5.3522,5.3621,5.3631,5.364,5.3735,5.3757,5.3776,0,0,0,0,0,0,5.3427,5.3418,5.3388,5.3476,5.3488,5.3481,5.3529,5.3493,5.3517,5.3506,5.3463,5.3464,5.354,5.3537,5.3484,5.3622,5.3552,5.3564,5.3621,5.3641,5.3658,5.3656,5.34,0,0,0,0,0,5.3458,5.3501,5.349,5.3568,5.3576,5.3552,5.3572,5.3547,5.3556,5.356,5.3553,5.3563,5.3596,5.3618,5.3648,5.3742,5.374,5.3788,5.3805,5.3819,5.3829,5.3879,5.39,5.3676,5.3676,5.3676,0,0,5.3522,5.3523,5.3552,5.3587,5.3593,5.3637,5.3556,5.3606,5.3637,5.3566,5.3631,5.3627,5.3635,5.3717,5.3753,5.3717,5.3891,5.3831,5.3842,5.3845,5.3891,5.3912,5.3931,5.3682,5.3681,5.368,0,0,5.3662,5.3667,5.3733,5.3741,5.3752,5.3736,5.3752,5.3751,5.3746,5.3811,5.3759,5.3795,5.3853,5.3861,5.3873,5.4017,5.3975,5.4028,5.4115,5.4164,5.4182,5.4197,5.4249,5.4268,5.4039,5.4039,5.4039,0,5.374,5.3805,5.3771,5.3825,5.3842,5.3782,5.3848,5.3857,5.3876,5.3889,5.3849,5.3922,5.3923,5.4006,5.4041,5.4053,5.4069,5.4027,5.4182,5.4198,5.4211,5.426,5.4279,5.4045,5.4045,5.4044,5.4044,0,5.3901,5.3947,5.3999,5.4021,5.4044,5.4104,5.4077,5.4104,5.4077,5.4065,5.4132,5.4131,5.416,5.4178,5.4151,5.4257,5.4235,5.419,5.4119,5.424,5.4284,5.4303,5.4055,5.4052,5.405,5.4049,0,0,5.4098,5.4103,5.4122,5.4132,5.414,5.4174,5.4231,5.4261,5.4285,5.43,5.4346,5.4398,5.4356,5.437,5.4343,5.4386,5.4501,5.4335,5.4335,5.4366,5.4618,5.4652,5.4674,5.4473,5.4477,5.4479,5.4617,0,5.4235,5.4333,5.4305,5.4404,5.4446,5.439,5.4439,5.4449,5.444,5.4473,5.4461,5.4499,5.4441,5.4449,5.449,5.4479,5.4551,5.4468,5.4514,5.4517,5.4514,5.4697,5.4733,5.4863,5.4635,5.4638,5.464,0,5.4406,5.4431,5.4535,5.4537,5.4553,5.4599,5.4624,5.4657,5.4667,5.4657,5.4673,5.4638,5.4693,5.4623,5.4697,5.4642,5.4659,5.4656,5.4661,5.4663,5.4585,5.4704,5.4904,5.4923,5.4667,5.4665,5.4663,0,5.454,5.4599,5.4668,5.4678,5.4683,5.4716,5.4719,5.4725,5.4745,5.4767,5.478,5.4807,5.4822,5.4844,5.4817,5.4768,5.4895,5.4823,5.4888,5.4889,5.4916,5.4915,5.5121,5.4929,5.4928,5.4928,5.4928,0,5.4694,5.476,5.4729,5.4771,5.4843,5.481,5.4881,5.4877,5.4884,5.4924,5.4877,5.4915,5.4878,5.4913,5.4892,5.4956,5.4963,5.4956,5.495,5.496,5.4961,5.497,5.496,5.4933,5.4932,5.4931,5.493,0,5.4855,5.4837,5.4909,5.4908,5.491,5.4962,5.4961,5.4999,5.4988,5.5039,5.5049,5.503,5.5068,5.5044,5.5083,5.5069,5.5153,5.5135,5.5151,5.5145,5.5212,5.5206,5.543,5.5458,5.5249,5.5251,5.5253,0,5.4954,5.5003,5.5009,5.5034,5.5041,5.5081,5.5102,5.5071,5.5094,5.5111,5.5147,5.5183,5.5209,5.5273,5.5262,5.5291,5.5272,5.5349,5.5276,5.5285,5.5273,5.527,5.5275,5.5363,5.5366,5.5368,5.537,0,5.5132,5.5122,5.5155,5.5186,5.5213,5.5235,5.5253,5.5275,5.5245,5.5273,5.5314,5.5334,5.5375,5.541,5.5436,5.5437,5.5398,5.5393,5.5409,5.542,5.5427,5.5424,5.519,5.5388,5.5386,5.5384,5.5383,5.5383,5.5264,5.5306,5.5317,5.5356,5.5367,5.5385,5.5422,5.5416,5.545,5.5482,5.5461,5.5509,5.5518,5.5548,5.5555,5.559,5.5559,5.5583,5.5589,5.5595,5.5604,5.5423,5.5595,5.5594,5.5594,5.5593,5.5593,0,5.544,5.5445,5.5481,5.5509,5.554,5.5504,5.5522,5.5549,5.5592,5.5605,5.5633,5.5679,5.5714,5.5706,5.5737,5.5767,5.575,5.5776,5.5773,5.5774,5.5631,5.5613,5.579,5.579,5.5789,5.5789,5.5789,5.5789,5.5535,5.5604,5.5595,5.5668,5.5672,5.572,5.5733,5.575,5.576,5.5815,5.5844,5.584,5.5844,5.5875,5.5905,5.5902,5.5915,5.5948,5.5938,5.5804,5.5784,5.5766,5.5749,5.5951,5.5951,5.6078,5.608,5.608]}]]